TimeEDT,TemperatureF,Dew PointF,Humidity,Sea Level PressureIn,VisibilityMPH,Wind Direction,Wind SpeedMPH,Gust SpeedMPH,PrecipitationIn,Events,Conditions,WindDirDegrees,DateUTC
12:52 AM,57.9,51.1,78,29.93,10.0,NE,8.1,-,N/A,,Clear,40,2012-10-28 04:52:00
1:52 AM,57.9,50.0,75,29.92,10.0,NE,9.2,-,N/A,,Clear,40,2012-10-28 05:52:00
2:52 AM,57.0,46.9,69,29.91,10.0,NE,9.2,-,N/A,,Clear,50,2012-10-28 06:52:00
3:52 AM,57.0,45.0,64,29.91,10.0,NE,10.4,-,N/A,,Clear,50,2012-10-28 07:52:00
4:52 AM,55.9,43.0,62,29.91,10.0,NE,11.5,-,N/A,,Clear,50,2012-10-28 08:52:00
5:52 AM,55.9,44.1,64,29.91,10.0,NE,10.4,-,N/A,,Mostly Cloudy,50,2012-10-28 09:52:00
6:52 AM,55.0,45.0,69,29.89,10.0,NNE,17.3,-,N/A,,Mostly Cloudy,30,2012-10-28 10:52:00
7:52 AM,55.0,45.0,69,29.91,10.0,NNE,12.7,20.7,N/A,,Mostly Cloudy,30,2012-10-28 11:52:00
8:52 AM,55.9,45.0,67,29.91,10.0,NNE,15.0,-,N/A,,Overcast,20,2012-10-28 12:52:00
9:26 AM,55.4,46.4,72,29.90,10.0,NNE,16.1,24.2,N/A,,Overcast,20,2012-10-28 13:26:00
9:52 AM,55.9,46.0,69,29.91,10.0,NNE,16.1,26.5,N/A,,Overcast,20,2012-10-28 13:52:00
10:52 AM,57.0,48.0,72,29.88,10.0,NNE,16.1,24.2,N/A,,Overcast,30,2012-10-28 14:52:00
11:48 AM,57.2,48.2,72,29.86,10.0,NNE,17.3,24.2,N/A,,Overcast,30,2012-10-28 15:48:00
11:52 AM,57.9,48.0,70,29.86,10.0,NNE,13.8,24.2,N/A,,Overcast,30,2012-10-28 15:52:00
12:40 PM,60.8,48.2,63,29.82,10.0,NNE,13.8,23.0,N/A,,Overcast,30,2012-10-28 16:40:00
12:52 PM,59.0,48.9,69,29.81,10.0,NNE,15.0,25.3,N/A,,Overcast,20,2012-10-28 16:52:00
1:52 PM,59.0,50.0,72,29.79,10.0,NNE,19.6,27.6,N/A,,Overcast,30,2012-10-28 17:52:00
2:52 PM,60.1,50.0,69,29.76,10.0,NE,20.7,27.6,N/A,,Overcast,40,2012-10-28 18:52:00
3:52 PM,60.1,48.9,67,29.77,10.0,NNE,13.8,23.0,N/A,,Overcast,30,2012-10-28 19:52:00
4:31 PM,59.0,48.2,67,29.77,10.0,NE,19.6,25.3,N/A,,Overcast,40,2012-10-28 20:31:00
4:52 PM,59.0,48.9,69,29.78,10.0,NE,15.0,24.2,N/A,,Overcast,40,2012-10-28 20:52:00
5:02 PM,59.0,50.0,72,29.77,10.0,NNE,15.0,23.0,N/A,,Overcast,30,2012-10-28 21:02:00
5:52 PM,59.0,48.9,69,29.77,10.0,NE,16.1,28.8,N/A,,Overcast,50,2012-10-28 21:52:00
6:52 PM,57.9,48.9,72,29.77,10.0,NE,17.3,26.5,N/A,,Mostly Cloudy,50,2012-10-28 22:52:00
7:36 PM,57.2,48.2,72,29.76,10.0,NE,16.1,-,N/A,,Overcast,50,2012-10-28 23:36:00
7:52 PM,57.9,48.0,70,29.77,10.0,NE,21.9,29.9,N/A,,Overcast,50,2012-10-28 23:52:00
8:08 PM,57.2,48.2,72,29.76,10.0,NE,18.4,25.3,N/A,,Overcast,50,2012-10-29 00:08:00
8:20 PM,57.2,48.2,72,29.75,10.0,NE,21.9,31.1,N/A,,Overcast,50,2012-10-29 00:20:00
8:52 PM,57.0,48.9,74,29.75,10.0,NE,17.3,25.3,N/A,,Overcast,50,2012-10-29 00:52:00
9:52 PM,54.0,50.0,86,29.73,7.0,NE,15.0,25.3,0.00,Rain,Light Rain,40,2012-10-29 01:52:00
10:34 PM,55.4,46.4,72,29.71,10.0,NE,16.1,28.8,0.00,,Overcast,40,2012-10-29 02:34:00
10:52 PM,55.0,48.0,77,29.70,10.0,NNE,18.4,27.6,0.00,,Overcast,30,2012-10-29 02:52:00
11:52 PM,55.0,46.9,74,29.68,10.0,NE,17.3,32.2,N/A,,Overcast,40,2012-10-29 03:52:00